Regional Weather Roundup
Issued by NWS Sioux Falls, SD

Home | Current Version | Previous Version | Graphics & Text | Print | Product List | Glossary Off
Versions: 1 2 3 4 5 6 7 8 9 10 11 12 13 14 15 16 17 18 19 20 21 22 23 24 25 26 27 28 29 30 31 32 33 34 35 36 37 38 39 40 41 42 43 44 45 46 47 48 49 50

000
ASUS43 KFSD 280102
RWRFSD

WEATHER ROUNDUP FOR SE SOUTH DAKOTA/SW MINNESOTA/NW IOWA
NATIONAL WEATHER SERVICE SIOUX FALLS SD
800 PM CDT SUN MAY 27 2018

NOTE: "FAIR" INDICATES FEW OR NO CLOUDS BELOW 12,000 FEET WITH NO
SIGNIFICANT WEATHER AND OR OBSTRUCTIONS TO VISIBILITY.


SDZ038>040-050-052>070-280200-
SOUTHEAST SOUTH DAKOTA

CITY           SKY/WX    TMP DP  RH WIND       PRES   REMARKS
BROOKINGS      PTCLDY    88  63  43 S9        29.77S
CHAMBERLAIN    MOSUNNY   90  71  52 CALM      29.74F HX  96
HURON          CLEAR     91  57  31 S13G24    29.71R
MADISON        FAIR      86  59  39 SW10      29.78S
MITCHELL       PTCLDY    90  62  39 S10       29.73S
SIOUX FALLS    MOCLDY    87  60  40 S8        29.77S
WINNER         FAIR      85  70  60 NE5       29.77S
YANKTON        PTCLDY    93  60  33 S8        29.77R
$$

MNZ071-072-080-081-089-090-097-098-280200-
SOUTHWEST MINNESOTA

CITY           SKY/WX    TMP DP  RH WIND       PRES   REMARKS
FAIRMONT       CLOUDY    92  60  34 S10       29.80R
JACKSON        PTCLDY    88  57  35 S7        29.81R
LUVERNE        CLOUDY    91  46  21 SW14      29.78S
MARSHALL       CLOUDY    93  62  35 SW7       29.74S
MONTEVIDEO     MOCLDY    95  57  28 S6        29.72F
PIPESTONE      MOCLDY    91  57  31 SW9       29.79S
REDWOOD FALLS  CLOUDY    89  58  34 E8        29.74R
WINDOM         PTCLDY    91  57  31 SE9       29.78S
WORTHINGTON      N/A     92  58  31 SW8       29.80S
$$

IAZ001>003-012>014-020>022-031-032-NEZ013-014-SDZ071-280200-
NORTHWEST IOWA

CITY           SKY/WX    TMP DP  RH WIND       PRES   REMARKS
CHEROKEE       MOCLDY    86  63  45 S7        29.80R
DENISON        CLOUDY    91  66  43 CALM      29.83S
ESTHERVILLE    PTCLDY    90  58  33 SE16      29.79S
ORANGE CITY    MOCLDY    93  55  27 SW12G17   29.79S
SHELDON        CLOUDY    95  55  26 SW9       29.77S
SIOUX CITY     CLOUDY    92  59  33 S8        29.78S
SPENCER        CLOUDY    92  56  29 S9        29.79S
STORM LAKE     PTCLDY    93  55  27 S10       29.82S
$$

ABBREVIATIONS USED IN REMARKS
   TC - TEMPERATURE IN CELSIUS
  WCI - WIND CHILL INDEX
   HX - HEAT INDEX
  VSB - VISIBILITY




USA.gov is the U.S. government's official web portal to all federal, state and local government web resources and services.